TimeCDT,TemperatureF,Dew PointF,Humidity,Sea Level PressureIn,VisibilityMPH,Wind Direction,Wind SpeedMPH,Gust SpeedMPH,PrecipitationIn,Events,Conditions,WindDirDegrees,DateUTC
12:15 AM,78.3,71.6,80,29.94,10.0,SE,11.5,17.3,N/A,,Overcast,130,2013-05-21 05:15:00
12:35 AM,78.4,71.2,78,29.95,10.0,SE,11.5,17.3,N/A,,Overcast,130,2013-05-21 05:35:00
12:55 AM,78.3,71.6,80,29.94,7.0,SE,11.5,17.3,N/A,,Overcast,130,2013-05-21 05:55:00
1:15 AM,78.3,71.6,80,29.94,7.0,ESE,13.8,17.3,N/A,,Overcast,120,2013-05-21 06:15:00
1:35 AM,78.3,71.6,80,29.94,7.0,SE,11.5,17.3,N/A,,Overcast,130,2013-05-21 06:35:00
1:55 AM,78.1,71.6,80,29.94,7.0,SE,8.1,-,N/A,,Overcast,130,2013-05-21 06:55:00
2:15 AM,78.1,71.2,79,29.94,10.0,SE,9.2,-,N/A,,Overcast,130,2013-05-21 07:15:00
2:35 AM,77.9,71.2,80,29.94,10.0,SE,11.5,-,N/A,,Overcast,130,2013-05-21 07:35:00
2:55 AM,77.9,71.2,80,29.93,7.0,SE,10.4,-,N/A,,Overcast,130,2013-05-21 07:55:00
3:15 AM,77.5,71.2,81,29.92,10.0,SE,10.4,-,N/A,,Overcast,140,2013-05-21 08:15:00
3:35 AM,77.2,70.9,81,29.92,10.0,SE,11.5,-,N/A,,Mostly Cloudy,140,2013-05-21 08:35:00
3:55 AM,77.4,70.9,80,29.91,7.0,SE,9.2,-,N/A,,Mostly Cloudy,140,2013-05-21 08:55:00
4:15 AM,77.4,70.3,79,29.91,7.0,SE,10.4,-,N/A,,Scattered Clouds,140,2013-05-21 09:15:00
4:35 AM,77.2,70.2,79,29.92,7.0,SE,10.4,18.4,N/A,,Mostly Cloudy,130,2013-05-21 09:35:00
4:55 AM,77.0,70.3,80,29.92,7.0,SSE,8.1,16.1,N/A,,Overcast,150,2013-05-21 09:55:00
5:15 AM,77.0,70.2,79,29.91,7.0,SE,10.4,16.1,N/A,,Mostly Cloudy,140,2013-05-21 10:15:00
5:35 AM,77.0,70.3,80,29.92,10.0,SE,10.4,-,N/A,,Overcast,140,2013-05-21 10:35:00
5:48 AM,82.4,71.6,70,29.94,7.0,SE,15.0,-,N/A,,Overcast,140,2013-05-21 10:48:00
5:55 AM,77.0,70.2,79,29.93,7.0,SE,8.1,-,N/A,,Overcast,140,2013-05-21 10:55:00
6:50 AM,77.0,69.8,78,29.95,6.0,SE,4.6,-,N/A,,Mostly Cloudy,130,2013-05-21 11:50:00
7:50 AM,78.8,69.8,74,29.96,7.0,SSE,6.9,-,N/A,,Mostly Cloudy,160,2013-05-21 12:50:00
8:49 AM,80.6,69.8,70,29.98,7.0,SSE,20.7,-,N/A,,Mostly Cloudy,150,2013-05-21 13:49:00
9:48 AM,82.4,69.8,66,29.98,7.0,South,16.1,-,N/A,,Mostly Cloudy,170,2013-05-21 14:48:00
10:48 AM,84.2,69.8,62,29.97,7.0,SE,11.5,-,N/A,,Mostly Cloudy,140,2013-05-21 15:48:00
11:50 AM,84.2,71.6,66,29.96,7.0,SE,11.5,-,N/A,,Mostly Cloudy,140,2013-05-21 16:50:00
12:51 PM,86.0,69.8,58,29.96,7.0,SE,11.5,-,N/A,,Mostly Cloudy,130,2013-05-21 17:51:00
1:50 PM,86.0,69.8,58,29.95,7.0,SSE,11.5,-,N/A,,Mostly Cloudy,150,2013-05-21 18:50:00
2:50 PM,84.2,69.8,62,29.94,7.0,SSE,11.5,-,N/A,,Mostly Cloudy,150,2013-05-21 19:50:00
3:50 PM,84.2,71.6,66,29.91,7.0,SSE,11.5,-,N/A,,Mostly Cloudy,150,2013-05-21 20:50:00
5:50 PM,84.2,71.6,66,29.88,7.0,SSE,17.3,-,N/A,,Mostly Cloudy,150,2013-05-21 22:50:00
6:50 PM,80.6,69.8,70,29.85,7.0,SSE,17.3,-,N/A,,Mostly Cloudy,150,2013-05-21 23:50:00
7:15 PM,79.9,70.2,72,29.86,7.0,SE,12.7,-,N/A,,Overcast,140,2013-05-22 00:15:00
7:35 PM,79.7,70.2,73,29.85,7.0,SE,10.4,17.3,N/A,,Overcast,140,2013-05-22 00:35:00
7:55 PM,79.2,69.8,73,29.86,7.0,SE,9.2,-,N/A,,Overcast,140,2013-05-22 00:55:00
8:15 PM,79.0,69.8,73,29.86,10.0,SE,12.7,16.1,N/A,,Overcast,140,2013-05-22 01:15:00
8:35 PM,78.8,69.8,74,29.85,10.0,SE,12.7,19.6,N/A,,Overcast,140,2013-05-22 01:35:00
8:55 PM,78.8,70.0,74,29.86,7.0,SE,12.7,-,N/A,,Mostly Cloudy,140,2013-05-22 01:55:00
9:15 PM,78.4,70.2,76,29.87,10.0,SE,8.1,-,N/A,,Overcast,140,2013-05-22 02:15:00
9:35 PM,78.8,70.7,76,29.89,10.0,SE,8.1,-,N/A,,Overcast,140,2013-05-22 02:35:00
9:55 PM,78.8,70.7,76,29.90,7.0,SE,6.9,-,N/A,,Overcast,130,2013-05-22 02:55:00
10:15 PM,78.8,70.5,76,29.90,7.0,SE,8.1,-,N/A,,Overcast,140,2013-05-22 03:15:00
10:35 PM,78.4,70.7,77,29.90,10.0,SE,8.1,-,N/A,,Overcast,140,2013-05-22 03:35:00
10:55 PM,78.3,70.7,77,29.91,7.0,SE,9.2,-,N/A,,Overcast,140,2013-05-22 03:55:00
11:15 PM,78.3,70.9,78,29.90,10.0,SE,10.4,17.3,N/A,,Overcast,130,2013-05-22 04:15:00
11:35 PM,78.1,70.9,78,29.91,10.0,SE,5.8,-,N/A,,Overcast,130,2013-05-22 04:35:00
11:55 PM,78.1,71.1,79,29.91,7.0,SE,6.9,-,N/A,,Overcast,140,2013-05-22 04:55:00